This is the latest recevied weather packets stored in our database for station/object N4OOJ-13. If no packets are shown the sender has not sent any weather packets the latest 10 day(s).
| Time | Temp. | Humidity | Pressure | Rain* | Wind** | Luminosity | Snow |
|---|---|---|---|---|---|---|---|
| 1788023418 | 31.11° C | 75% | 1022.7 hPa | 0.25 mm | - | - | - |
| 1788022831 | 30° C | 78% | 1022.7 hPa | 0.25 mm | - | - | - |
| 1788022224 | 30° C | 78% | 1022.7 hPa | 0.25 mm | - | - | - |
| 1788021623 | 28.33° C | 86% | 1022.9 hPa | 0.25 mm | - | - | - |
| 1788021016 | 27.78° C | 89% | 1023 hPa | 0.25 mm | - | - | - |
| 1788020430 | 27.22° C | 90% | 1023.4 hPa | 0 mm | - | - | - |
| 1788019823 | 27.22° C | 91% | 1023.4 hPa | 0 mm | - | - | - |
| 1788019218 | 27.22° C | 90% | 1023.4 hPa | 0 mm | - | - | - |
| 1788018625 | 27.78° C | 91% | 1023.4 hPa | 0 mm | - | - | - |
| 1788018018 | 26.67° C | 92% | 1023.4 hPa | 0 mm | - | - | - |
| 1788017418 | 26.67° C | 92% | 1023.4 hPa | 0 mm | - | - | - |
| 1788016830 | 26.11° C | 95% | 1023.2 hPa | 0 mm | - | - | - |
| 1788016229 | 26.11° C | 95% | 1023.2 hPa | 0 mm | - | - | - |
| 1788015623 | 25.56° C | 98% | 1023.2 hPa | 0 mm | - | - | - |
| 1788015025 | 25° C | 99% | 1023.1 hPa | 0 mm | - | - | - |
| 1788014424 | 25° C | 99% | 1023.2 hPa | 0 mm | - | - | - |
| 1788013818 | 25° C | 99% | 1023.1 hPa | 0 mm | - | - | - |
| 1788013218 | 24.44° C | 99% | 1023 hPa | 0 mm | - | - | - |
| 1788012624 | 24.44° C | 99% | 1022.9 hPa | 0 mm | - | - | - |
| 1788012017 | 24.44° C | 99% | 1022.9 hPa | 0 mm | - | - | - |
| 1788011429 | 23.89° C | 99% | 1022.9 hPa | 0 mm | - | - | - |
| 1788010823 | 23.89° C | 99% | 1022.6 hPa | 0 mm | - | - | - |
| 1788010218 | 23.89° C | 99% | 1022.4 hPa | 0 mm | - | - | - |
| 1788009617 | 23.89° C | 99% | 1022.2 hPa | 0 mm | - | - | - |
| 1788009031 | 23.89° C | 99% | 1022.2 hPa | 0 mm | - | - | - |
* Rain latest hour (hover to see other rain measurements)
** Current wind speed in m/s (hover to see current wind gust speed)